Flag for U.S.A. Weather past 2 weeks in Lexington-Fayette, Kentucky, U.S.A.

Now
71 °F

Clear.


Feels Like: 69 °F
Forecast: 70 / 88 °F
Wind: 5 mph from Southwest

Location: Blue Grass Airport

Current Time: Aug 21, 2014 at 8:23:01 AM

Latest Report: Aug 21, 2014 at 7:54 AM


Visibility: 10 mi

Pressure: 30.06 "Hg

Humidity: 87%

Dew point: 67 °F

Location of Lexington-FayetteLocation

Historic Weather in Lexington-Fayette — Graph

°F

Lexington-Fayette temperature yesterday

Maximum temperature yesterday: 89 °F (at 2:54 PM)
Minimum temperature yesterday: 71 °F (at 4:54 AM)
Average temperature yesterday: 77 °F

Past Weeks' High & Low Weather Summary

 TemperatureHumidityPressure
High89 °F (Aug 20, 2:54 PM)96% (Aug 12, 5:54 AM)30.08 "Hg (Aug 12, 5:54 AM)
Low59 °F (Aug 13, 4:54 AM)39% (Aug 15, 3:54 PM)29.79 "Hg (Aug 18, 5:54 AM)
Average73 °F77%29.96 "Hg
* Reported Aug 6 6:54 AM — Aug 21 6:54 AM, Lexington-Fayette, Weather by CustomWeather, © 2014

Note: Actual official high and low records may vary slightly from our data, if they occured in-between our weather recording intervals... More about our weather records

Advertising

Lexington-Fayette weather history for previous 24 hours

 ConditionsComfort  
Time TempWeatherWind HumidityBarometerVisibility
6:54 AM
Aug 21
70 °FClear.6 mph87%30.05 "Hg10 mi
5:54 AM70 °FClear.7 mph87%30.05 "Hg10 mi
4:54 AM70 °FClear.7 mph87%30.03 "Hg10 mi
3:54 AM69 °FClear.5 mph90%30.03 "Hg8 mi
2:54 AM70 °FClear.No wind87%30.03 "Hg10 mi
1:54 AM69 °FClear.5 mph90%30.03 "Hg8 mi
12:54 AM70 °FClear.6 mph90%30.04 "Hg10 mi
11:54 PM
Aug 20
71 °FClear.7 mph87%30.05 "Hg10 mi
10:54 PM72 °FClear.9 mph84%30.05 "Hg10 mi
9:54 PM72 °FClear.6 mph84%30.04 "Hg10 mi
8:54 PM71 °FSunny.8 mph90%30.02 "Hg10 mi
7:54 PM72 °FSunny.3 mph84%30.00 "Hg10 mi
6:54 PM73 °FSunny.8 mph84%29.96 "Hg10 mi
4:56 PM84 °FThundershowers. Partly sunny.5 mph65%29.98 "Hg4 mi
3:54 PM89 °FBroken clouds.8 mph59%29.94 "Hg10 mi
2:54 PM89 °FScattered clouds.9 mph57%29.96 "Hg10 mi
1:54 PM87 °FBroken clouds.5 mph63%29.96 "Hg10 mi
12:54 PM85 °FScattered clouds.7 mph65%29.96 "Hg10 mi
11:54 AM83 °FPartly sunny.7 mph72%29.96 "Hg10 mi
10:54 AM81 °FPassing clouds.8 mph74%29.95 "Hg10 mi
9:54 AM79 °FPartly sunny.9 mph74%29.93 "Hg10 mi
8:54 AM75 °FSunny.8 mph79%29.93 "Hg10 mi
8:01 AM72 °FScattered clouds.6 mph84%29.95 "Hg10 mi
Weather by CustomWeather, © 2014

See weather overviewHow to use our weather pages